GEFSNGP_850_meantemp_138.txt.gz
Temperature
27 27 26 26 27 27 27 27 27 27 26 25 25 24 24 24 24 24 23 22 22 21 20 20 19 19 19 18 18 18 18 17 17 17 17 17 17 17 17 17 17 17 17 17
25 27 26 26 27 27 27 28 27 26 25 25 24 23 23 23 23 23 22 21 21 20 20 20 19 19 19 18 18 18 18 18 17 17 17 17 17 17 17 17 17 16 16 16
24 26 26 25 26 27 27 27 27 25 24 24 23 22 22 22 22 22 21 21 20 20 19 19 19 18 18 18 18 18 18 17 17 17 17 17 17 17 17 17 17 16 16 16
24 24 23 25 27 27 26 26 26 25 24 23 22 21 20 20 20 20 20 20 19 19 19 18 18 18 18 18 18 17 17 17 17 17 17 17 17 17 17 16 16 16 16 16
23 23 23 24 25 25 25 24 24 23 23 22 21 20 19 19 19 19 18 18 18 18 18 18 18 18 18 17 17 17 17 17 17 17 17 17 17 17 16 16 16 16 16 16
22 22 22 22 24 24 24 22 22 22 21 21 21 20 19 18 18 18 17 17 17 17 18 17 17 17 17 17 17 17 17 17 16 16 16 16 16 16 16 16 16 16 16 16
22 22 22 22 23 24 22 20 20 20 20 20 20 19 17 17 16 16 16 16 16 16 17 16 17 17 17 16 16 16 16 16 16 16 16 16 16 16 16 15 15 15 15 15
21 21 20 21 22 21 19 19 19 19 18 18 18 17 16 15 15 15 15 15 15 15 15 15 16 16 15 15 15 16 16 16 16 15 15 15 15 15 15 15 15 15 15 14
20 19 19 19 19 18 18 18 18 17 17 17 16 16 15 14 14 14 14 14 14 15 15 15 14 14 14 14 14 15 15 15 15 15 15 15 15 15 15 15 14 14 14 14
19 19 18 18 18 17 17 17 16 16 16 16 15 15 14 14 14 13 13 13 14 14 14 14 14 14 14 13 14 14 14 14 14 14 14 14 14 14 14 14 14 14 13 13
18 18 18 17 16 16 16 16 15 15 15 15 14 14 13 13 13 13 13 13 13 13 13 13 13 13 13 13 13 13 13 14 14 13 13 13 13 13 13 13 13 13 13 12
17 17 17 15 15 15 15 14 14 14 14 14 13 13 13 13 12 12 12 12 12 12 12 12 12 12 12 13 13 13 13 13 13 13 13 13 13 13 12 12 12 12 12 12
17 16 15 14 14 14 14 13 13 13 13 13 13 12 12 12 12 12 12 12 12 12 12 12 12 12 12 12 12 13 13 13 13 13 13 12 12 12 12 12 11 11 11 11
15 15 15 14 13 13 13 13 13 13 12 12 12 12 12 12 12 12 12 11 11 11 11 11 11 11 12 12 12 12 12 12 12 12 12 12 12 12 12 11 11 11 10 10
15 15 14 13 13 13 13 13 12 12 12 12 12 12 12 12 11 11 11 11 11 11 11 11 11 11 11 11 12 12 12 12 12 12 12 12 12 12 11 11 11 10 10 9
14 14 13 13 13 13 13 13 12 12 12 12 12 12 11 11 11 11 11 11 11 10 10 10 10 11 11 11 11 11 11 12 12 12 12 12 11 11 11 11 10 10 9 9
14 14 13 13 13 13 13 13 12 12 12 12 11 11 11 11 11 11 11 10 10 10 10 10 10 10 10 11 11 11 11 11 11 11 11 11 11 10 10 10 10 9 9 9
14 14 14 14 13 13 13 12 12 12 12 12 12 11 11 11 11 10 10 10 10 10 10 10 10 10 10 10 10 10 11 11 10 10 10 10 10 10 9 9 9 9 8 8
14 14 14 13 13 13 13 12 12 12 12 12 12 11 11 11 10 10 10 10 9 9 9 9 9 9 9 10 10 10 10 10 10 9 9 9 9 9 8 8 8 8 7 7
14 13 13 13 13 13 12 12 12 12 12 11 11 11 11 10 10 10 10 9 9 9 9 9 8 9 9 9 9 9 9 9 9 9 8 8 8 8 8 7 7 7 7 7
13 13 13 12 12 12 12 12 12 12 11 11 11 11 10 10 10 10 9 9 8 8 8 8 8 8 8 8 9 9 9 8 8 8 8 7 7 7 7 7 6 6 6 6
12 12 12 12 12 11 11 11 11 11 11 11 10 10 10 10 9 9 9 8 8 8 8 8 7 8 8 8 8 8 8 8 7 7 7 7 6 6 6 6 6 5 5 5
11 11 11 11 11 11 11 11 11 10 10 10 10 10 9 9 9 9 8 8 7 7 7 7 7 7 7 7 7 7 7 7 6 6 6 6 6 5 5 5 5 5 4 4
11 11 11 11 10 10 10 10 10 10 10 9 9 9 9 9 8 8 7 7 7 7 7 6 6 6 6 6 6 6 6 6 6 5 5 5 5 5 5 4 4 4 4 3
10 10 10 10 10 10 10 9 9 9 9 9 9 8 8 8 8 7 7 7 6 6 6 6 6 6 6 5 5 5 5 5 5 5 4 4 4 4 4 4 4 3 3 3
10 10 10 10 10 10 10 10 9 9 9 9 8 8 8 7 7 7 6 6 6 6 6 5 5 5 5 5 5 5 4 4 4 4 4 4 4 4 3 3 3 3 3 3
10 9 9 9 9 9 9 9 9 9 8 8 8 7 7 7 6 6 6 6 5 5 5 5 5 5 5 4 4 4 4 4 4 3 3 3 3 3 3 3 3 3 2 2

GEFSNGP_850_meantemp_144.txt.gz
Temperature
21 22 23 23 23 23 22 21 20 20 19 19 18 18 18 19 19 18 18 18 18 18 18 18 18 18 18 18 18 17 17 17 17 17 17 17 17 17 17 17 17 17 17 16
21 22 22 23 23 23 22 22 21 20 19 18 18 18 17 17 18 18 18 18 18 18 18 18 18 18 17 17 17 17 17 17 17 17 17 17 17 17 17 17 17 16 16 16
19 21 21 20 21 21 21 20 20 19 18 17 17 16 16 17 17 17 17 17 18 18 18 18 18 18 17 17 17 17 17 17 17 17 17 17 17 17 16 16 16 16 16 16
17 19 20 19 20 21 20 19 19 18 17 17 16 16 16 17 17 17 17 17 17 17 17 17 17 17 17 17 17 17 17 17 17 17 16 16 16 16 16 16 16 16 16 16
16 18 19 19 20 19 18 17 18 17 16 16 16 16 16 16 17 17 17 17 17 17 17 17 17 17 17 17 17 16 16 16 16 16 16 16 16 16 16 16 16 15 15 15
16 18 18 18 19 19 18 17 17 17 16 16 16 15 15 15 16 16 16 16 16 16 17 17 17 17 17 16 16 16 16 16 16 16 16 16 16 15 15 15 15 15 15 15
16 17 17 17 18 19 18 16 16 16 16 16 15 14 15 15 15 15 15 16 16 16 16 16 16 16 16 16 15 15 15 16 16 16 15 15 15 15 15 15 15 14 14 14
15 16 16 16 17 16 15 16 16 16 16 15 14 14 14 14 14 15 15 15 15 15 15 15 15 15 15 15 15 15 15 15 15 15 15 15 15 14 14 14 14 14 14 14
14 14 14 15 15 16 16 15 15 15 15 15 14 14 14 14 14 14 14 14 14 14 14 14 15 15 15 14 14 15 15 15 14 14 14 14 14 14 14 14 14 13 13 13
14 14 14 14 15 15 15 15 15 15 15 15 14 13 13 13 13 13 13 13 14 14 14 14 14 14 14 14 14 14 14 14 14 14 14 13 13 13 13 13 13 13 12 12
14 13 13 14 14 14 14 14 14 14 14 14 13 13 13 13 12 12 12 13 13 13 13 13 13 13 13 13 14 14 13 13 13 13 13 13 13 12 12 12 12 12 12 11
13 13 12 12 13 13 14 14 14 13 13 13 13 13 12 12 12 12 12 12 12 12 12 12 13 13 13 13 13 13 13 13 13 13 13 12 12 12 12 11 11 11 11 11
14 14 13 12 12 13 13 13 13 13 13 12 12 12 12 11 11 11 11 12 12 12 12 12 12 12 12 13 13 13 13 12 12 12 12 12 12 12 11 11 11 10 10 10
14 13 12 12 12 12 12 12 12 12 12 12 11 11 11 11 11 11 11 11 11 11 11 12 12 12 12 12 12 12 12 12 12 12 11 11 11 11 11 11 10 10 9 9
13 14 13 12 12 12 12 12 12 11 11 11 11 11 11 11 11 10 10 11 11 11 11 11 11 11 11 12 12 12 12 12 11 11 11 11 11 10 10 10 10 9 9 9
13 12 12 12 11 11 11 11 11 11 11 11 11 11 11 11 10 10 10 10 10 10 10 11 11 11 11 11 11 11 11 11 11 11 11 10 10 10 10 9 9 9 9 8
12 11 11 11 11 11 11 11 11 11 11 11 11 11 10 10 10 10 10 10 10 10 10 10 10 10 10 11 11 11 11 10 10 10 10 10 10 9 9 9 9 8 8 7
13 13 12 12 12 11 11 11 11 11 11 11 11 10 10 10 10 10 10 10 10 10 10 10 10 10 10 10 10 10 10 10 10 9 9 9 9 8 8 8 8 8 7 7
13 12 12 12 12 12 12 11 11 11 11 11 11 10 10 10 10 10 10 10 9 9 9 9 9 9 9 9 9 9 9 9 9 9 8 8 8 8 7 7 7 7 7 6
12 12 12 12 12 12 11 11 11 11 11 11 10 10 10 9 9 9 9 9 9 8 8 9 9 9 9 9 9 9 8 8 8 8 8 7 7 7 7 6 6 6 6 6
12 12 12 12 11 11 11 11 11 11 11 10 10 10 9 9 9 9 9 8 8 8 8 8 8 8 8 8 8 8 8 7 7 7 7 7 6 6 6 6 5 5 5 5
11 11 11 11 11 11 11 11 11 11 10 10 10 9 9 9 9 9 8 8 8 7 8 8 8 7 7 7 7 7 7 7 6 6 6 6 6 5 5 5 5 4 4 4
11 11 11 11 11 11 10 10 10 10 10 10 9 9 9 9 8 8 8 7 7 7 7 7 7 7 7 7 7 6 6 6 6 6 5 5 5 5 4 4 4 4 4 4
11 11 11 11 10 10 10 10 10 10 9 9 9 9 9 8 8 8 7 7 7 7 6 6 6 6 6 6 6 6 5 5 5 5 5 4 4 4 4 4 4 3 3 3
10 10 10 10 10 10 10 9 9 9 9 8 8 8 8 8 7 7 7 6 6 6 6 6 6 6 6 5 5 5 5 4 4 4 4 4 4 4 3 3 3 3 3 3
10 10 10 10 10 9 9 9 9 8 8 8 8 7 7 7 7 6 6 6 6 6 6 5 5 5 5 5 5 4 4 4 4 4 4 3 3 3 3 3 3 3 3 3
9 9 9 9 9 9 9 9 8 8 8 7 7 7 6 6 6 6 6 6 5 5 5 5 5 5 4 4 4 4 4 4 4 3 3 3 3 3 3 3 3 3 3 2

GEFSNGP_850_meantemp_150.txt.gz
Temperature
19 20 20 21 20 19 19 18 18 19 18 18 17 16 16 16 17 17 17 17 17 17 18 18 18 18 18 17 17 17 17 17 17 16 16 16 16 16 16 16 16 16 16 16
19 20 20 20 20 20 20 19 19 18 18 17 16 16 16 16 16 16 16 16 17 17 17 17 17 17 17 17 17 17 17 17 17 16 16 16 16 16 16 16 16 16 16 16
18 19 20 19 19 19 19 18 18 18 17 16 15 15 15 15 16 16 16 16 17 17 17 17 17 17 17 17 17 16 16 16 16 16 16 16 16 16 16 16 16 16 15 15
16 19 19 18 18 18 18 17 17 16 16 15 15 15 15 15 16 16 16 16 16 16 16 16 17 16 16 16 16 16 16 16 16 16 16 16 16 16 16 15 15 15 15 15
15 17 18 18 18 17 17 17 16 16 15 15 15 15 15 15 15 15 15 16 16 16 16 16 16 16 16 16 16 16 16 16 16 16 16 15 15 15 15 15 15 15 15 15
15 17 17 17 17 17 17 16 16 15 14 14 15 15 14 15 15 15 15 15 15 15 16 16 16 16 16 16 16 16 15 15 15 15 15 15 15 15 15 14 14 14 14 14
15 16 16 16 16 17 17 17 15 15 15 14 14 14 14 14 14 14 15 15 15 15 15 15 16 15 15 15 15 15 15 15 15 15 14 14 14 14 14 14 14 14 14 14
13 15 16 15 16 16 15 15 15 15 14 14 14 14 13 14 14 14 14 14 15 15 15 15 15 15 15 15 14 14 14 14 14 14 14 14 14 14 14 14 13 13 13 13
13 14 13 13 14 14 15 14 14 14 14 14 14 13 13 13 13 13 14 14 14 14 14 14 14 14 14 14 14 14 14 14 14 14 13 13 13 13 13 13 13 13 13 12
13 13 13 13 14 14 15 15 15 15 14 14 13 13 13 13 13 13 13 13 13 14 14 14 14 14 14 14 14 14 14 13 13 13 13 13 13 12 12 12 12 12 12 11
13 12 12 13 13 14 14 14 14 14 14 14 13 12 12 12 12 13 13 13 13 13 13 13 13 13 13 13 13 13 13 13 13 13 12 12 12 12 12 11 11 11 11 11
13 13 12 12 13 13 14 14 14 13 13 13 13 12 12 12 12 12 12 12 12 12 12 12 13 13 13 13 13 13 13 12 12 12 12 12 12 11 11 11 11 10 10 10
13 13 13 13 13 13 13 13 13 13 13 12 12 12 12 12 11 12 12 12 12 12 12 12 12 12 12 12 12 12 12 12 12 12 11 11 11 11 11 10 10 10 10 9
13 13 12 12 12 12 12 12 12 12 12 12 11 11 11 11 11 11 11 11 11 12 12 12 12 12 12 12 12 12 12 12 12 11 11 11 11 10 10 10 9 9 9 9
13 13 13 12 12 11 12 12 11 11 11 11 11 11 11 11 10 10 11 11 11 11 11 11 11 11 11 12 12 11 11 11 11 11 11 10 10 10 10 9 9 9 8 8
12 12 12 11 11 11 11 11 11 10 10 10 10 10 10 10 10 10 10 10 11 11 10 10 10 10 11 11 11 11 11 11 11 10 10 10 9 9 9 9 8 8 8 7
12 11 11 11 10 10 10 10 11 10 10 10 10 10 10 10 10 10 10 10 10 10 10 10 10 10 10 10 10 10 10 10 10 10 9 9 9 9 8 8 8 7 7 7
12 12 12 11 11 10 10 10 10 10 10 10 10 10 10 10 10 9 9 10 10 10 9 9 9 10 10 10 10 10 9 9 9 9 9 8 8 8 8 7 7 7 6 6
12 12 11 11 11 10 10 10 10 10 10 10 10 10 10 9 9 9 9 9 9 9 9 9 9 9 9 9 9 9 9 9 8 8 8 7 7 7 7 7 6 6 6 6
11 11 11 11 11 11 10 10 10 10 10 10 10 10 9 9 9 9 9 9 9 8 8 8 8 8 8 8 8 8 8 8 8 7 7 7 7 6 6 6 5 5 5 5
11 11 11 11 10 11 11 11 10 10 10 10 10 9 9 9 8 8 9 8 8 8 8 8 8 8 8 7 7 7 7 7 7 7 6 6 6 5 5 5 5 4 4 4
11 11 10 10 10 10 10 10 10 10 10 9 9 9 9 8 8 8 8 7 7 7 7 7 7 7 7 7 7 7 6 6 6 6 5 5 5 5 4 4 4 4 4 4
10 10 10 10 10 10 10 10 10 10 9 9 9 8 8 8 8 8 7 7 7 7 7 7 7 6 6 6 6 6 6 5 5 5 5 5 4 4 4 4 3 3 3 3
10 10 10 10 10 10 9 9 9 9 9 9 8 8 8 8 7 7 7 6 6 6 6 6 6 6 6 6 5 5 5 5 5 4 4 4 4 4 3 3 3 3 3 3
10 10 10 10 9 9 9 9 9 9 8 8 8 7 7 7 7 6 6 6 6 6 6 5 5 5 5 5 5 5 4 4 4 4 4 4 3 3 3 3 3 3 3 3
9 9 9 9 9 9 9 9 8 8 8 8 7 7 7 6 6 6 6 6 5 5 5 5 5 5 5 5 4 4 4 4 4 4 3 3 3 3 3 3 3 3 2 2
9 9 9 9 8 8 8 8 8 8 7 7 7 6 6 6 6 6 6 5 5 5 5 4 4 4 4 4 4 4 4 4 3 3 3 3 3 3 3 3 2 2 2 2

GEFSNGP_850_meantemp_156.txt.gz
Temperature
28 28 28 28 28 28 28 28 28 28 28 27 26 25 23 22 21 20 19 19 18 18 17 17 17 17 17 17 17 17 16 16 16 16 16 16 16 16 16 16 16 16 16 16
26 27 27 27 28 28 28 28 28 28 27 26 24 23 22 21 20 20 19 18 18 17 17 17 16 16 16 16 16 16 16 16 16 16 16 16 16 16 16 16 16 16 16 16
26 26 26 26 27 27 27 28 28 27 26 24 23 22 21 20 19 19 18 18 17 17 16 16 16 16 16 16 16 16 16 16 16 16 16 16 16 15 15 16 15 15 15 15
26 25 24 27 26 27 27 26 26 26 25 23 22 20 19 19 18 18 17 17 17 16 16 16 16 16 16 16 16 16 16 16 15 15 15 15 15 15 15 15 15 15 15 15
26 25 26 25 25 26 26 25 25 25 24 22 20 19 18 17 17 17 16 16 16 16 16 16 16 16 16 16 15 15 15 15 15 15 15 15 15 15 15 15 15 15 14 14
25 25 25 25 25 24 25 24 23 23 22 21 21 23 20 16 16 16 15 15 15 15 15 15 15 15 15 15 15 15 15 15 15 15 15 15 15 14 14 14 14 14 14 14
24 24 25 24 23 23 24 24 22 21 21 20 21 21 17 15 15 15 15 15 15 15 15 15 15 15 15 15 14 14 14 14 14 14 14 14 14 14 14 14 14 14 13 13
24 24 24 22 23 23 22 20 20 20 19 19 17 16 15 15 14 14 14 14 14 14 14 14 14 14 14 14 14 14 14 14 14 14 14 14 14 13 13 13 13 13 12 12
23 22 20 20 20 18 18 19 18 18 17 16 16 15 14 14 14 14 14 14 14 14 14 14 14 14 14 14 13 13 13 13 13 13 13 13 13 13 13 13 12 12 12 12
20 20 19 18 17 17 17 17 17 16 16 16 15 14 14 14 13 13 13 13 13 13 13 13 13 13 13 13 13 13 13 13 13 13 12 12 12 12 12 12 12 12 11 11
20 19 18 17 17 17 16 16 16 15 15 15 14 14 13 13 13 13 13 13 13 13 13 13 13 13 13 13 13 13 12 12 12 12 12 12 12 11 11 11 11 11 11 10
20 19 19 18 16 15 15 15 15 14 14 14 14 13 13 12 12 12 12 12 12 12 12 12 12 12 12 12 12 12 12 12 12 12 11 11 11 11 10 10 10 10 10 10
17 17 16 15 15 15 15 14 14 14 13 13 13 12 12 12 12 12 12 12 12 12 12 12 12 12 12 12 12 12 12 11 11 11 11 11 10 10 10 9 9 9 9 9
15 15 15 15 14 14 13 13 13 12 12 12 12 12 12 11 11 11 11 11 11 11 11 11 11 11 11 11 11 11 11 11 11 11 11 10 10 10 9 9 9 8 8 8
14 14 14 13 13 13 12 12 12 12 11 11 11 11 11 11 11 11 11 11 11 11 11 11 11 11 11 11 11 11 11 11 10 10 10 10 10 9 9 9 9 8 8 8
13 13 13 13 13 12 12 12 12 11 11 11 10 11 11 11 10 10 10 10 10 10 10 10 10 10 10 10 10 10 10 10 10 10 10 10 9 9 9 9 8 8 8 7
13 13 13 12 12 12 11 11 11 11 10 10 10 10 10 10 10 10 10 10 10 10 10 10 10 10 10 10 10 10 10 9 9 10 9 9 9 9 9 9 8 8 7 7
13 13 12 12 12 11 11 11 10 10 10 10 10 10 10 10 9 9 9 9 9 9 9 9 9 9 9 9 9 10 10 9 9 9 9 8 8 8 8 8 7 7 7 6
12 12 12 11 11 11 10 10 10 10 10 10 10 10 9 9 9 9 9 9 9 9 8 9 9 9 9 9 9 9 9 9 9 8 8 8 8 8 7 7 7 7 6 6
11 11 11 11 11 10 10 10 10 10 10 10 10 9 9 9 9 8 8 8 8 8 8 8 8 8 8 8 9 9 8 8 8 8 7 7 7 7 7 7 6 6 6 5
11 11 10 10 10 10 10 10 10 10 9 9 9 9 9 8 8 8 8 8 8 8 8 8 8 8 8 8 8 8 8 8 7 7 7 7 7 6 6 6 6 5 5 5
10 10 10 10 10 9 9 9 9 9 9 9 9 9 8 8 8 8 8 8 7 7 7 7 7 7 7 7 7 7 7 7 7 7 7 6 6 6 6 5 5 5 5 4
10 10 10 10 10 9 9 9 9 9 9 9 8 8 8 8 8 8 7 7 7 7 7 7 7 7 7 7 7 7 7 7 7 6 6 6 5 5 5 5 4 4 4 4
9 10 9 9 9 9 9 9 9 8 8 8 8 8 8 8 7 7 7 7 6 6 6 6 6 6 6 7 6 6 6 6 6 6 6 5 5 5 4 4 4 4 4 3
9 9 9 9 9 9 8 8 8 8 8 8 7 7 7 7 7 7 6 6 6 6 6 6 6 6 6 6 6 6 6 5 5 5 5 5 5 4 4 4 4 4 3 3
9 9 9 9 9 8 8 8 8 8 8 7 7 7 7 7 6 6 6 6 6 6 6 5 5 5 6 6 5 5 5 5 5 5 5 4 4 4 4 4 3 3 3 3
8 9 9 9 8 8 8 8 8 8 8 7 7 7 7 6 6 6 6 6 6 5 5 5 5 5 5 5 5 5 5 5 4 4 4 4 4 4 4 3 3 3 3 3